Location: Capelle
(50.3413°N, 1.9974°E)
Time: 23:47:01
(UTC+00:00)

Cosmos 1953 - Pass Details

Date: 12 January 2026
Orbit: 474 x 489 km, 82.5° (Epoch: 17 February)

Event Time Altitude Azimuth Distance (km) Brightness Sun altitude
Rises 18:47:20 0° 339° (NNW) 2,588 5.9 -23.8°
Reaches altitude 10° 18:49:41 10° 327° (NNW) 1,701 5.1 -24.2°
Maximum altitude 18:52:47 26° 270° (W) 1,021 4.4 -24.7°
Drops below altitude 10° 18:55:53 10° 213° (SSW) 1,689 5.2 -25.1°
Sets 18:58:12 0° 201° (SSW) 2,565 6.0 -25.5°
